Content
SEND FEEDBACK

Daily
Averages
Monthly
Summary
United States of America

ARROYO SEQUIT PARK, CALIFORNIA


Home > North America > United States > California
Elevation: 1600 feet     Latitude: 34 05N     Longitude: 118 53W

WEATHER
 
SELECT A DAY
Number of Records: 208,011;   Date Range: 1/1/95 - 8/28/14
 
SHARE

PRINT THIS DATA

[ ← Previous Day ]
WEATHER ALMANAC - JANUARY 31, 2013
[ Next Day → ]
[ °C ]   °F
Weather ElementAverageHighLow
Temperature56.2 °F72 °F (12:55 pm)42.1 °F (4:55 am)
Dewpoint42.2 °F50 °F (12:55 pm)36 °F (6:55 am)
Humidity62.3 %82 % (1:55 am)33 % (1:55 pm)
Barometer30.19 in30.25 in (1:55 am)30.14 in (3:55 pm)
Wind Speed2.6 mph10.4 mph (1:55 pm)
Weather ElementAverage
Visibility10 mi
Wind DirectionENE (82 °)

Weather ElementTotal
Precipitation---
Heating Degree Days8 (Base 65)
Growing Degree Days7.1 (Base 50)
Averaged from 20 records on January 31, 2013
WEATHER CONDITIONS BREAKOUT
WIND DIRECTION BREAKOUT
WEATHER BY HOUR - JANUARY 31, 2013
[ °C ]   °F
Local TimeTemperatureDewpointHumidityBarometerVisibilityWind DirectionWind SpeedGust SpeedPrecipitationEventsConditions
1:55 AM43.0 °F37.9 °F82 %30.25 in10.0 miCalmClear
2:55 AM43.0 °F37.9 °F82 %30.24 in10.0 miCalmClear
3:55 AM43.0 °F37.9 °F82 %30.22 in10.0 miCalmClear
4:55 AM42.1 °F37.0 °F82 %30.21 in10.0 miCalmClear
5:55 AM46.9 °F37.0 °F68 %30.21 in10.0 miCalmClear
6:55 AM44.1 °F36.0 °F73 %30.22 in10.0 miCalmClear
7:55 AM48.0 °F39.0 °F71 %30.23 in10.0 miCalmClear
8:55 AM53.1 °F41.0 °F64 %30.25 in10.0 miCalmClear
10:55 AM69.1 °F44.1 °F40 %30.23 in10.0 miWest (270°)4.6 mphClear
11:55 AM71.1 °F48.0 °F44 %30.21 in10.0 miSSW (200°)6.9 mphClear
12:55 PM72.0 °F50.0 °F46 %30.17 in10.0 miSSW (210°)8.1 mphClear
1:55 PM72.0 °F41.0 °F33 %30.15 in10.0 miSW (230°)10.4 mphClear
2:55 PM70.0 °F42.1 °F36 %30.15 in10.0 miSW (230°)6.9 mphClear
3:55 PM68.0 °F43.0 °F40 %30.14 in10.0 miSW (230°)6.9 mphClear
4:55 PM64.9 °F46.0 °F50 %30.14 in10.0 miSW (230°)4.6 mphClear
5:55 PM60.1 °F46.9 °F62 %30.15 in10.0 miCalmClear
6:55 PM59.0 °F46.0 °F62 %30.16 in10.0 miCalmClear
8:55 PM55.0 °F46.0 °F72 %30.15 in10.0 miCalmClear
9:55 PM51.1 °F44.1 °F77 %30.14 in10.0 miCalmClear
11:55 PM48.9 °F43.0 °F80 %30.15 in10.0 miNE (40°)3.5 mphClear
Hourly data recorded from KCMA, located miles away from Arroyo Sequit Park, California







STORIES FROM OUR PARTNERS